Regional Weather Roundup
Issued by NWS

Home | Current Version | Previous Version | Graphics & Text | Print | Product List | Glossary On
Versions: 1 2 3 4 5 6 7 8 9 10 11 12 13 14 15 16 17 18 19 20 21 22 23 24 25 26 27 28 29 30 31 32 33 34 35 36 37 38 39 40 41 42 43 44 45 46 47 48 49 50
000
ASUS43 KDMX 311004
RWRIA

WEATHER ROUNDUP FOR IOWA
NATIONAL WEATHER SERVICE DES MOINES IA
  ISSUED BY NWS QUAD CITIES IA IL
400 AM CST SAT JAN 31 2015

NOTE: "FAIR" INDICATES FEW OR NO CLOUDS BELOW 12,000 FEET WITH NO
SIGNIFICANT WEATHER AND/OR OBSTRUCTIONS TO VISIBILITY.

* - THESE STATIONS ARE NOT NWS STATIONS...THUS NOT UNDER NWS
QUALITY CONTROL.  THEY ALSO DO NOT REPORT WEATHER SUCH
AS PRECIPITATION OR FOG.

IAZ001>003-012>014-020>022-031>034-043>046-311100-
   NORTHWEST IOWA

CITY           SKY/WX    TMP DP  RH WIND       PRES   REMARKS
CARROLL *      PTCLDY    32  28  86 SW14      30.16S WCI  22
CHEROKEE *     MOSUNNY   30  28  90 SW5       30.13F WCI  25
DENNISON *     MOCLDY    32  30  93 S5        30.15S WCI  27
LE MARS *      PTCLDY    28  27  93 S6        30.13F WCI  22
ORANGE CITY *  CLEAR     28  25  86 S7        30.11S WCI  21
SIOUX CITY     MOCLDY    28  25  88 E7        30.13F WCI  21
SPENCER        PTCLDY    27  23  85 SW3       30.12F
$$

IAZ055>058-069>071-079>083-090>094-311100-
   SOUTHWEST IOWA

CITY           SKY/WX    TMP DP  RH WIND       PRES   REMARKS
ATLANTIC *     CLOUDY    32  27  80 SW8       30.19F WCI  25
AUDUBON *      MOCLDY    30  25  80 S6        30.18F WCI  24
CLARINDA *     CLOUDY    32  25  74 S5        30.25F WCI  27
COUNCIL BLFS * CLOUDY    36  30  80 S8        30.18F WCI  29
CRESTON *      CLOUDY    30  25  80 SW9       30.21F WCI  22
HARLAN *       MOCLDY    30  30 100 S7        30.21F WCI  23
LAMONI         CLOUDY    27  19  72 S8        30.24S WCI  19
$$

IAZ047>049-059>061-072>074-084-311100-
   CENTRAL IOWA

CITY           SKY/WX    TMP DP  RH WIND       PRES   REMARKS
AMES           MOCLDY    28  21  75 SW8       30.18F WCI  20
ANKENY *       MOCLDY    30  21  69 SW5       30.20F WCI  25
BOONE *        MOCLDY    28  25  86 SW8       30.16S WCI  20
CHARITON *     CLOUDY    30  21  69 SW10G17   30.22F WCI  21
DES MOINES     CLOUDY    30  21  69 SW3       30.20F
GRINNELL *     MOSUNNY   27  20  77 S10       30.20F WCI  17
KNOXVILLE *    MOCLDY    30  21  69 SW9       30.20F WCI  22
MARSHALLTOWN   PTCLDY    26  19  74 SW10      30.17F WCI  16
PELLA *        PTCLDY    29  21  74 SW8       30.22F WCI  21
PERRY *          N/A     29  27  90 SW7       30.18F WCI  22
$$

IAZ004>006-015-016-023>025-035-036-311100-
   NORTH CENTRAL IOWA

CITY           SKY/WX    TMP DP  RH WIND       PRES   REMARKS
ALGONA *       CLEAR     25  25 100 SW9       30.13F WCI  15
CLARION *      CLEAR     25  23  93 S7        30.14F WCI  17
ESTHERVILLE    PTCLDY    28  24  85 W8        30.11S WCI  20
FORT DODGE *   PTCLDY    27  21  80 SW7       30.15F WCI  19
MASON CITY     CLEAR     26  21  81 W12       30.14F WCI  16
WEBSTER CITY * PTCLDY    27  27 100 SW10      30.13F WCI  17
IOWA FALLS *   FAIR      26  21  82 SW7       30.16F WCI  18
$$

IAZ007>011-017>019-026>030-037>042-050>054-066-311100-
   NORTHEAST IOWA

CITY           SKY/WX    TMP DP  RH WIND       PRES   REMARKS
CEDAR RAPIDS   CLEAR     24  19  81 S9        30.19F WCI  14
CHARLES CITY * CLEAR     19  18  93 S8        30.15F WCI   9
CLINTON *      CLEAR     19  16  86 S8        30.26F WCI   9
DECORAH *      CLEAR     25  16  68 VRB5G12   30.14S WCI  19
DUBUQUE        CLEAR     20  15  81 SW12      30.17F WCI   8
MONTICELLO *   CLEAR     23  19  86 S5        30.20F WCI  17
OELWEIN *      CLEAR     19  16  86 S7        30.17F WCI  10
WATERLOO       CLEAR     25  18  74 SW7       30.16F WCI  17
$$

IAZ064-065-067-068-078-311100-
   EAST CENTRAL IOWA

CITY           SKY/WX    TMP DP  RH WIND       PRES   REMARKS
DAVENPORT      MOCLDY    25  17  72 S9        30.24F WCI  15
IOWA CITY      PTCLDY    24  20  84 SE3       30.24F
MT. PLEASANT * PTCLDY    26  20  80 S8        30.26F WCI  17
MUSCATINE *    PTCLDY    27  21  80 S7        30.26F WCI  19
QUAD CITIES    PTCLDY    26  17  68 CALM      30.25F
$$

IAZ062-063-075>077-085>089-095>099-311100-
   SOUTHEAST IOWA

CITY           SKY/WX    TMP DP  RH WIND       PRES   REMARKS
BURLINGTON     PTCLDY    27  21  78 S8        30.27F WCI  19
FAIRFIELD *    PTCLDY    27  19  74 S9        30.24F WCI  17
FORT MADISON * FAIR      27  21  80 S7        30.28F WCI  19
KEOKUK *       CLEAR     27  21  80 S7        30.28F WCI  19
OTTUMWA        CLEAR     26  19  74 S8        30.23F WCI  18
WASHINGTON *   MOCLDY    28  25  86 S10       30.24F WCI  19
$$

ABBREVIATIONS USED IN REMARKS
   TC - TEMPERATURES IN CELSIUS
  WCI - WIND CHILL INDEX
   HX - HEAT INDEX
  VSB - VISIBILITY
$$


USA.gov is the U.S. government's official web portal to all federal, state and local government web resources and services.